QPF
0.09 0.13 0.30 0.39 0.30 0.29 0.27 0.24 0.21 0.16 0.12 0.08 0.05 0.04 0.05 0.05 0.02 0.00 0.00 0.00 0.00 0.00 0.00 0.00 0.00 0.00 0.00 0.00 0.00 0.00 0.00 0.00 0.01 0.01 0.00 0.00 0.00 0.00 0.00 0.00 0.00 0.01 0.01
0.07 0.09 0.20 0.36 0.24 0.18 0.17 0.19 0.17 0.17 0.13 0.09 0.05 0.04 0.05 0.04 0.01 0.00 0.00 0.00 0.00 0.00 0.00 0.00 0.00 0.00 0.00 0.00 0.00 0.00 0.00 0.00 0.00 0.00 0.00 0.00 0.01 0.01 0.00 0.00 0.00 0.00 0.00
0.04 0.09 0.19 0.25 0.23 0.18 0.14 0.13 0.12 0.11 0.12 0.11 0.08 0.07 0.05 0.03 0.02 0.01 0.00 0.00 0.00 0.00 0.00 0.00 0.00 0.00 0.00 0.00 0.00 0.00 0.00 0.00 0.00 0.00 0.00 0.00 0.01 0.00 0.00 0.00 0.00 0.00 0.00
0.03 0.06 0.16 0.18 0.19 0.22 0.21 0.18 0.15 0.13 0.11 0.10 0.08 0.06 0.05 0.03 0.03 0.01 0.00 0.00 0.00 0.00 0.00 0.00 0.00 0.00 0.00 0.00 0.00 0.00 0.00 0.00 0.00 0.00 0.00 0.00 0.00 0.00 0.00 0.00 0.00 0.00 0.00
0.02 0.04 0.09 0.11 0.12 0.16 0.18 0.17 0.16 0.15 0.13 0.09 0.09 0.08 0.05 0.03 0.03 0.03 0.01 0.00 0.00 0.00 0.00 0.00 0.00 0.00 0.00 0.00 0.00 0.00 0.00 0.00 0.00 0.00 0.00 0.00 0.00 0.00 0.00 0.00 0.00 0.00 0.00
0.01 0.02 0.05 0.08 0.09 0.10 0.12 0.14 0.12 0.12 0.13 0.10 0.09 0.09 0.07 0.04 0.03 0.03 0.02 0.01 0.00 0.00 0.00 0.00 0.00 0.00 0.00 0.00 0.00 0.00 0.00 0.00 0.00 0.00 0.00 0.00 0.00 0.00 0.00 0.00 0.00 0.00 0.00
0.01 0.02 0.04 0.09 0.13 0.11 0.10 0.14 0.13 0.09 0.09 0.08 0.06 0.06 0.08 0.06 0.03 0.02 0.01 0.00 0.00 0.00 0.00 0.00 0.00 0.00 0.00 0.00 0.00 0.00 0.00 0.00 0.00 0.00 0.00 0.00 0.00 0.00 0.00 0.00 0.00 0.00 0.00
0.01 0.01 0.02 0.04 0.07 0.06 0.07 0.11 0.14 0.11 0.07 0.06 0.05 0.04 0.06 0.05 0.04 0.03 0.01 0.00 0.00 0.00 0.00 0.00 0.00 0.00 0.00 0.00 0.00 0.00 0.00 0.00 0.00 0.00 0.00 0.00 0.00 0.00 0.00 0.00 0.00 0.00 0.00
0.01 0.01 0.01 0.02 0.03 0.04 0.06 0.08 0.09 0.09 0.07 0.07 0.05 0.03 0.04 0.03 0.02 0.02 0.01 0.01 0.00 0.00 0.00 0.00 0.00 0.00 0.00 0.00 0.00 0.00 0.00 0.00 0.00 0.00 0.00 0.00 0.00 0.00 0.00 0.00 0.00 0.00 0.00
0.00 0.00 0.01 0.01 0.02 0.03 0.05 0.06 0.06 0.06 0.06 0.06 0.05 0.03 0.02 0.02 0.02 0.01 0.01 0.00 0.00 0.00 0.00 0.00 0.00 0.00 0.00 0.00 0.00 0.00 0.00 0.00 0.00 0.00 0.00 0.00 0.00 0.00 0.00 0.00 0.00 0.00 0.00
0.01 0.02 0.00 0.00 0.01 0.02 0.04 0.04 0.04 0.04 0.05 0.06 0.05 0.03 0.02 0.02 0.02 0.01 0.00 0.00 0.00 0.00 0.00 0.00 0.00 0.00 0.00 0.00 0.00 0.00 0.00 0.00 0.00 0.00 0.00 0.00 0.00 0.00 0.00 0.00 0.00 0.00 0.00
0.01 0.00 0.00 0.00 0.01 0.01 0.02 0.03 0.04 0.05 0.05 0.05 0.05 0.04 0.03 0.03 0.03 0.02 0.01 0.00 0.00 0.01 0.00 0.00 0.00 0.00 0.00 0.00 0.00 0.00 0.00 0.00 0.00 0.00 0.00 0.00 0.00 0.00 0.00 0.00 0.00 0.00 0.00
0.01 0.01 0.01 0.01 0.03 0.03 0.03 0.04 0.05 0.06 0.05 0.05 0.04 0.03 0.03 0.02 0.03 0.02 0.02 0.01 0.01 0.01 0.01 0.01 0.00 0.00 0.00 0.00 0.00 0.00 0.00 0.00 0.00 0.00 0.00 0.00 0.00 0.00 0.00 0.00 0.00 0.00 0.00
0.02 0.02 0.03 0.03 0.05 0.06 0.06 0.05 0.04 0.04 0.04 0.05 0.05 0.04 0.03 0.03 0.02 0.03 0.03 0.04 0.04 0.03 0.02 0.01 0.01 0.01 0.01 0.00 0.00 0.00 0.00 0.00 0.00 0.00 0.00 0.00 0.00 0.00 0.00 0.00 0.00 0.00 0.00
0.04 0.04 0.05 0.05 0.06 0.09 0.10 0.08 0.07 0.07 0.08 0.09 0.09 0.08 0.08 0.08 0.08 0.07 0.07 0.08 0.08 0.07 0.05 0.03 0.02 0.02 0.02 0.02 0.01 0.01 0.01 0.00 0.00 0.00 0.00 0.00 0.00 0.00 0.00 0.00 0.00 0.00 0.00
0.06 0.07 0.08 0.07 0.08 0.10 0.13 0.15 0.14 0.15 0.19 0.20 0.22 0.25 0.29 0.30 0.25 0.21 0.20 0.19 0.17 0.14 0.11 0.09 0.07 0.06 0.06 0.06 0.05 0.05 0.05 0.04 0.03 0.02 0.01 0.01 0.01 0.01 0.01 0.01 0.02 0.02 0.02
0.09 0.11 0.15 0.15 0.14 0.14 0.16 0.19 0.23 0.28 0.33 0.37 0.40 0.43 0.45 0.48 0.47 0.44 0.39 0.33 0.32 0.29 0.22 0.19 0.15 0.14 0.13 0.11 0.10 0.08 0.06 0.05 0.03 0.02 0.02 0.02 0.02 0.02 0.02 0.02 0.03 0.03 0.03
0.10 0.12 0.18 0.19 0.17 0.19 0.23 0.24 0.26 0.31 0.38 0.46 0.55 0.60 0.57 0.57 0.56 0.54 0.47 0.43 0.44 0.41 0.34 0.28 0.22 0.19 0.16 0.13 0.10 0.08 0.05 0.04 0.03 0.03 0.02 0.02 0.02 0.02 0.02 0.02 0.02 0.01 0.01
0.06 0.08 0.12 0.16 0.23 0.20 0.20 0.23 0.20 0.23 0.34 0.42 0.44 0.41 0.41 0.46 0.52 0.51 0.49 0.49 0.46 0.38 0.30 0.25 0.22 0.19 0.16 0.13 0.11 0.09 0.06 0.05 0.04 0.05 0.04 0.03 0.02 0.01 0.01 0.02 0.02 0.01 0.01
0.05 0.05 0.06 0.09 0.13 0.18 0.20 0.18 0.17 0.22 0.29 0.34 0.36 0.30 0.28 0.32 0.41 0.46 0.43 0.39 0.37 0.37 0.33 0.27 0.24 0.22 0.20 0.17 0.14 0.11 0.08 0.06 0.05 0.05 0.04 0.04 0.03 0.02 0.02 0.02 0.01 0.01 0.01
0.02 0.03 0.04 0.05 0.07 0.09 0.11 0.14 0.18 0.20 0.21 0.22 0.27 0.29 0.28 0.26 0.30 0.33 0.32 0.32 0.32 0.32 0.31 0.30 0.28 0.25 0.23 0.19 0.15 0.13 0.11 0.09 0.08 0.07 0.05 0.04 0.04 0.03 0.02 0.02 0.01 0.01 0.02
0.01 0.01 0.02 0.03 0.04 0.04 0.04 0.06 0.08 0.10 0.12 0.13 0.14 0.15 0.16 0.19 0.23 0.22 0.22 0.24 0.23 0.21 0.19 0.18 0.16 0.15 0.15 0.15 0.15 0.15 0.13 0.10 0.08 0.07 0.05 0.04 0.03 0.03 0.02 0.02 0.02 0.02 0.02
0.01 0.01 0.01 0.01 0.01 0.01 0.01 0.02 0.03 0.04 0.06 0.06 0.07 0.07 0.07 0.09 0.12 0.13 0.14 0.14 0.12 0.11 0.11 0.09 0.08 0.06 0.06 0.06 0.06 0.06 0.07 0.06 0.04 0.04 0.04 0.03 0.02 0.02 0.01 0.01 0.01 0.01 0.01
0.00 0.00 0.00 0.00 0.00 0.00 0.00 0.00 0.01 0.01 0.02 0.03 0.05 0.06 0.07 0.07 0.07 0.07 0.06 0.06 0.06 0.05 0.04 0.03 0.03 0.03 0.03 0.03 0.02 0.02 0.02 0.02 0.02 0.01 0.01 0.01 0.01 0.01 0.01 0.01 0.01 0.01 0.01
0.00 0.00 0.00 0.00 0.00 0.00 0.00 0.00 0.00 0.00 0.00 0.00 0.01 0.01 0.02 0.03 0.03 0.03 0.03 0.04 0.04 0.03 0.03 0.02 0.01 0.01 0.01 0.01 0.00 0.00 0.00 0.00 0.01 0.01 0.00 0.00 0.00 0.00 0.01 0.01 0.01 0.01 0.01
0.00 0.00 0.00 0.00 0.00 0.00 0.00 0.00 0.00 0.00 0.00 0.00 0.00 0.00 0.00 0.01 0.01 0.01 0.01 0.02 0.02 0.02 0.02 0.02 0.02 0.01 0.01 0.00 0.00 0.00 0.00 0.00 0.00 0.00 0.00 0.00 0.00 0.00 0.00 0.00 0.00 0.00 0.00
MSLP
1008.41 1008.84 1009.25 1009.61 1009.92 1010.18 1010.46 1010.80 1011.25 1011.84 1012.55 1013.33 1014.12 1014.86 1015.47 1015.92 1016.21 1016.37 1016.44 1016.49 1016.56 1016.70 1016.92 1017.22 1017.55 1017.87 1018.16 1018.39 1018.55 1018.65 1018.71 1018.76 1018.82 1018.90 1019.00 1019.08 1019.12 1019.10 1018.99 1018.80 1018.55 1018.27 1018.00
1008.98 1009.44 1009.86 1010.19 1010.42 1010.60 1010.77 1011.02 1011.41 1011.95 1012.64 1013.43 1014.24 1014.99 1015.60 1016.04 1016.31 1016.43 1016.47 1016.49 1016.57 1016.73 1016.99 1017.34 1017.72 1018.09 1018.41 1018.65 1018.79 1018.87 1018.90 1018.93 1018.99 1019.09 1019.22 1019.35 1019.45 1019.47 1019.39 1019.21 1018.95 1018.63 1018.31
1009.53 1010.02 1010.46 1010.77 1010.97 1011.07 1011.16 1011.32 1011.63 1012.11 1012.75 1013.51 1014.31 1015.05 1015.66 1016.09 1016.33 1016.44 1016.46 1016.48 1016.56 1016.74 1017.04 1017.43 1017.85 1018.25 1018.58 1018.82 1018.95 1019.00 1019.01 1019.04 1019.10 1019.23 1019.40 1019.58 1019.74 1019.83 1019.80 1019.65 1019.39 1019.05 1018.69
1009.98 1010.51 1010.98 1011.31 1011.48 1011.54 1011.56 1011.64 1011.86 1012.26 1012.84 1013.55 1014.30 1015.02 1015.61 1016.03 1016.27 1016.37 1016.40 1016.43 1016.53 1016.74 1017.06 1017.47 1017.92 1018.33 1018.66 1018.89 1019.00 1019.04 1019.04 1019.07 1019.15 1019.30 1019.52 1019.76 1019.99 1020.13 1020.16 1020.05 1019.82 1019.49 1019.11
1010.30 1010.88 1011.38 1011.74 1011.92 1011.95 1011.92 1011.93 1012.06 1012.38 1012.87 1013.50 1014.20 1014.88 1015.44 1015.85 1016.10 1016.22 1016.27 1016.33 1016.46 1016.69 1017.03 1017.45 1017.90 1018.31 1018.63 1018.85 1018.95 1018.98 1018.99 1019.02 1019.12 1019.31 1019.57 1019.87 1020.15 1020.36 1020.44 1020.38 1020.18 1019.87 1019.50
1010.48 1011.10 1011.65 1012.05 1012.25 1012.28 1012.22 1012.17 1012.22 1012.44 1012.84 1013.39 1014.01 1014.63 1015.17 1015.58 1015.84 1015.99 1016.08 1016.17 1016.33 1016.58 1016.94 1017.36 1017.80 1018.20 1018.51 1018.71 1018.81 1018.84 1018.85 1018.90 1019.03 1019.25 1019.54 1019.88 1020.21 1020.46 1020.59 1020.58 1020.43 1020.16 1019.81
1010.53 1011.18 1011.79 1012.23 1012.46 1012.50 1012.42 1012.33 1012.31 1012.44 1012.75 1013.20 1013.75 1014.32 1014.83 1015.23 1015.51 1015.70 1015.83 1015.96 1016.15 1016.42 1016.78 1017.20 1017.62 1018.00 1018.29 1018.49 1018.59 1018.63 1018.66 1018.72 1018.87 1019.11 1019.43 1019.79 1020.14 1020.42 1020.60 1020.64 1020.53 1020.31 1020.01
1010.45 1011.14 1011.79 1012.27 1012.53 1012.60 1012.51 1012.39 1012.32 1012.38 1012.60 1012.97 1013.45 1013.96 1014.44 1014.84 1015.14 1015.35 1015.53 1015.70 1015.92 1016.20 1016.56 1016.96 1017.36 1017.73 1018.01 1018.20 1018.31 1018.36 1018.41 1018.50 1018.66 1018.90 1019.23 1019.59 1019.95 1020.25 1020.45 1020.52 1020.47 1020.31 1020.07
1010.26 1010.98 1011.65 1012.16 1012.46 1012.54 1012.47 1012.33 1012.23 1012.24 1012.40 1012.71 1013.12 1013.59 1014.04 1014.43 1014.74 1014.99 1015.19 1015.39 1015.63 1015.93 1016.28 1016.67 1017.06 1017.41 1017.68 1017.88 1018.00 1018.07 1018.14 1018.24 1018.41 1018.65 1018.95 1019.30 1019.64 1019.94 1020.15 1020.26 1020.26 1020.17 1020.00
1009.97 1010.69 1011.38 1011.90 1012.21 1012.32 1012.26 1012.14 1012.04 1012.04 1012.17 1012.43 1012.81 1013.23 1013.65 1014.04 1014.35 1014.61 1014.83 1015.05 1015.30 1015.60 1015.95 1016.33 1016.71 1017.05 1017.33 1017.54 1017.68 1017.77 1017.85 1017.97 1018.13 1018.35 1018.63 1018.94 1019.25 1019.53 1019.75 1019.88 1019.93 1019.90 1019.80
1009.60 1010.30 1010.97 1011.48 1011.80 1011.92 1011.90 1011.81 1011.74 1011.76 1011.90 1012.16 1012.51 1012.91 1013.31 1013.67 1013.97 1014.22 1014.45 1014.67 1014.92 1015.22 1015.57 1015.94 1016.32 1016.67 1016.96 1017.18 1017.35 1017.46 1017.57 1017.68 1017.83 1018.03 1018.27 1018.53 1018.81 1019.06 1019.26 1019.41 1019.50 1019.53 1019.51
1009.18 1009.84 1010.45 1010.93 1011.23 1011.37 1011.39 1011.36 1011.35 1011.43 1011.61 1011.89 1012.24 1012.63 1013.01 1013.34 1013.62 1013.85 1014.05 1014.27 1014.51 1014.80 1015.15 1015.52 1015.91 1016.26 1016.58 1016.82 1017.01 1017.15 1017.26 1017.37 1017.51 1017.67 1017.87 1018.09 1018.32 1018.54 1018.73 1018.89 1019.00 1019.08 1019.13
1008.78 1009.36 1009.89 1010.30 1010.58 1010.72 1010.79 1010.84 1010.92 1011.08 1011.33 1011.66 1012.03 1012.41 1012.76 1013.06 1013.29 1013.48 1013.66 1013.84 1014.07 1014.35 1014.69 1015.08 1015.47 1015.84 1016.18 1016.45 1016.66 1016.81 1016.93 1017.04 1017.16 1017.29 1017.45 1017.63 1017.81 1018.00 1018.17 1018.33 1018.47 1018.58 1018.68
1008.45 1008.93 1009.36 1009.69 1009.92 1010.07 1010.19 1010.32 1010.51 1010.77 1011.11 1011.49 1011.89 1012.27 1012.59 1012.84 1013.01 1013.15 1013.27 1013.42 1013.62 1013.89 1014.23 1014.61 1015.02 1015.41 1015.76 1016.05 1016.28 1016.44 1016.57 1016.66 1016.76 1016.87 1016.99 1017.13 1017.29 1017.45 1017.60 1017.75 1017.90 1018.03 1018.16
1008.27 1008.64 1008.94 1009.18 1009.36 1009.52 1009.69 1009.91 1010.20 1010.56 1010.99 1011.43 1011.85 1012.21 1012.49 1012.68 1012.80 1012.86 1012.93 1013.03 1013.20 1013.45 1013.78 1014.17 1014.58 1014.98 1015.35 1015.65 1015.87 1016.04 1016.15 1016.24 1016.32 1016.40 1016.50 1016.62 1016.75 1016.89 1017.03 1017.17 1017.31 1017.45 1017.58
1008.30 1008.54 1008.73 1008.88 1009.01 1009.16 1009.38 1009.67 1010.06 1010.52 1011.01 1011.49 1011.93 1012.27 1012.50 1012.62 1012.66 1012.65 1012.66 1012.71 1012.85 1013.08 1013.40 1013.79 1014.20 1014.60 1014.96 1015.25 1015.47 1015.62 1015.72 1015.79 1015.84 1015.91 1015.99 1016.09 1016.21 1016.34 1016.47 1016.60 1016.72 1016.83 1016.95
1008.55 1008.68 1008.77 1008.83 1008.92 1009.08 1009.33 1009.68 1010.14 1010.66 1011.21 1011.71 1012.13 1012.43 1012.60 1012.65 1012.62 1012.55 1012.49 1012.51 1012.61 1012.83 1013.14 1013.52 1013.93 1014.32 1014.66 1014.93 1015.12 1015.24 1015.31 1015.35 1015.38 1015.43 1015.50 1015.59 1015.70 1015.82 1015.94 1016.05 1016.14 1016.22 1016.29
1009.01 1009.06 1009.07 1009.08 1009.14 1009.30 1009.57 1009.97 1010.46 1011.02 1011.58 1012.07 1012.46 1012.71 1012.81 1012.79 1012.69 1012.57 1012.47 1012.46 1012.55 1012.75 1013.06 1013.43 1013.82 1014.19 1014.50 1014.73 1014.88 1014.96 1014.98 1014.98 1014.98 1015.01 1015.07 1015.15 1015.26 1015.37 1015.47 1015.55 1015.61 1015.64 1015.65
1009.65 1009.65 1009.62 1009.60 1009.65 1009.80 1010.09 1010.49 1011.00 1011.55 1012.09 1012.55 1012.88 1013.07 1013.11 1013.03 1012.88 1012.72 1012.61 1012.59 1012.68 1012.89 1013.20 1013.56 1013.94 1014.28 1014.54 1014.72 1014.81 1014.83 1014.80 1014.75 1014.72 1014.72 1014.75 1014.83 1014.92 1015.02 1015.10 1015.15 1015.16 1015.12 1015.05
1010.37 1010.37 1010.33 1010.31 1010.36 1010.52 1010.81 1011.21 1011.69 1012.21 1012.69 1013.09 1013.35 1013.48 1013.46 1013.35 1013.17 1013.01 1012.91 1012.90 1013.02 1013.25 1013.57 1013.93 1014.28 1014.59 1014.81 1014.93 1014.96 1014.91 1014.82 1014.71 1014.63 1014.59 1014.59 1014.64 1014.71 1014.79 1014.84 1014.84 1014.80 1014.69 1014.55
1011.12 1011.15 1011.15 1011.15 1011.22 1011.38 1011.65 1012.02 1012.46 1012.91 1013.32 1013.64 1013.84 1013.90 1013.85 1013.71 1013.55 1013.41 1013.34 1013.38 1013.54 1013.81 1014.15 1014.51 1014.85 1015.12 1015.30 1015.36 1015.33 1015.21 1015.04 1014.88 1014.74 1014.64 1014.60 1014.61 1014.64 1014.68 1014.68 1014.64 1014.53 1014.36 1014.14
1011.85 1011.94 1011.98 1012.03 1012.12 1012.28 1012.53 1012.85 1013.22 1013.59 1013.92 1014.16 1014.29 1014.31 1014.24 1014.11 1013.98 1013.89 1013.89 1013.99 1014.21 1014.52 1014.88 1015.26 1015.58 1015.83 1015.96 1015.97 1015.87 1015.68 1015.45 1015.22 1015.01 1014.86 1014.76 1014.71 1014.69 1014.67 1014.62 1014.52 1014.35 1014.12 1013.82
1012.53 1012.68 1012.79 1012.88 1012.99 1013.15 1013.37 1013.64 1013.93 1014.22 1014.46 1014.62 1014.70 1014.69 1014.63 1014.53 1014.45 1014.43 1014.50 1014.68 1014.96 1015.31 1015.71 1016.09 1016.40 1016.62 1016.71 1016.67 1016.51 1016.27 1015.98 1015.68 1015.41 1015.19 1015.02 1014.90 1014.80 1014.72 1014.60 1014.44 1014.21 1013.91 1013.55
1013.14 1013.37 1013.54 1013.67 1013.80 1013.96 1014.14 1014.35 1014.56 1014.77 1014.92 1015.03 1015.07 1015.05 1015.00 1014.95 1014.94 1015.00 1015.15 1015.40 1015.73 1016.12 1016.53 1016.91 1017.21 1017.40 1017.45 1017.37 1017.17 1016.88 1016.54 1016.18 1015.85 1015.55 1015.31 1015.11 1014.94 1014.77 1014.59 1014.35 1014.06 1013.71 1013.29
1013.72 1014.00 1014.22 1014.39 1014.53 1014.68 1014.82 1014.97 1015.12 1015.24 1015.34 1015.39 1015.41 1015.40 1015.38 1015.39 1015.45 1015.58 1015.80 1016.10 1016.48 1016.89 1017.30 1017.66 1017.93 1018.08 1018.10 1017.98 1017.74 1017.42 1017.03 1016.63 1016.24 1015.89 1015.57 1015.30 1015.05 1014.80 1014.53 1014.23 1013.87 1013.46 1013.01
1014.27 1014.59 1014.85 1015.04 1015.20 1015.32 1015.43 1015.53 1015.62 1015.68 1015.73 1015.76 1015.77 1015.77 1015.80 1015.86 1015.98 1016.16 1016.43 1016.77 1017.15 1017.55 1017.93 1018.25 1018.48 1018.59 1018.57 1018.42 1018.16 1017.80 1017.40 1016.96 1016.54 1016.13 1015.76 1015.41 1015.09 1014.76 1014.41 1014.04 1013.62 1013.16 1012.65
Thickness
5750 5749 5747 5746 5744 5743 5742 5744 5743 5742 5742 5740 5738 5736 5734 5735 5736 5737 5737 5736 5736 5735 5734 5732 5731 5730 5728 5726 5725 5723 5721 5719 5719 5716 5712 5714 5716 5716 5717 5717 5717 5716 5716
5747 5745 5745 5745 5744 5743 5742 5743 5742 5741 5741 5740 5739 5738 5736 5735 5735 5736 5735 5735 5735 5735 5734 5732 5730 5729 5727 5725 5724 5722 5719 5718 5717 5713 5707 5704 5706 5711 5715 5715 5716 5716 5715
5749 5747 5745 5745 5744 5743 5742 5744 5742 5740 5740 5740 5738 5736 5733 5731 5730 5731 5732 5734 5735 5734 5733 5731 5730 5728 5727 5724 5723 5722 5719 5715 5715 5715 5710 5702 5698 5702 5709 5712 5713 5714 5713
5754 5750 5747 5745 5744 5744 5744 5743 5742 5740 5739 5739 5737 5734 5730 5727 5729 5732 5733 5733 5734 5733 5732 5731 5730 5728 5726 5724 5723 5721 5720 5717 5713 5713 5713 5710 5708 5702 5700 5705 5709 5711 5712
5758 5753 5751 5749 5747 5746 5745 5743 5741 5739 5738 5738 5737 5735 5732 5731 5732 5732 5731 5731 5731 5732 5731 5730 5729 5727 5725 5724 5722 5720 5719 5716 5713 5712 5711 5709 5707 5705 5701 5697 5701 5705 5708
5761 5757 5754 5750 5746 5745 5744 5743 5740 5738 5738 5738 5737 5735 5733 5731 5730 5730 5728 5728 5729 5730 5730 5729 5728 5726 5724 5722 5721 5719 5718 5715 5713 5712 5710 5708 5705 5702 5700 5696 5696 5697 5703
5760 5756 5752 5748 5745 5744 5744 5743 5740 5738 5738 5737 5736 5735 5734 5733 5732 5731 5729 5728 5727 5727 5728 5728 5727 5725 5724 5722 5720 5718 5716 5715 5712 5710 5709 5707 5706 5704 5700 5697 5694 5694 5697
5761 5758 5756 5752 5749 5747 5745 5743 5741 5739 5738 5737 5736 5735 5735 5734 5733 5733 5732 5730 5730 5730 5730 5728 5726 5725 5723 5721 5718 5716 5715 5713 5711 5710 5707 5705 5704 5703 5701 5698 5693 5689 5689
5764 5761 5759 5756 5753 5750 5747 5745 5742 5739 5738 5737 5736 5735 5735 5735 5734 5734 5733 5732 5731 5731 5729 5727 5725 5723 5721 5719 5716 5714 5712 5710 5708 5707 5705 5703 5702 5701 5700 5698 5695 5688 5682
5765 5763 5761 5759 5756 5754 5750 5747 5744 5741 5740 5738 5737 5736 5735 5735 5734 5733 5731 5730 5729 5729 5727 5725 5723 5721 5718 5716 5713 5711 5710 5707 5705 5704 5702 5700 5699 5698 5697 5695 5693 5690 5685
5764 5763 5762 5761 5758 5754 5750 5746 5743 5741 5739 5738 5737 5736 5734 5733 5732 5731 5730 5729 5728 5727 5725 5723 5721 5718 5715 5713 5710 5708 5706 5704 5702 5701 5698 5697 5696 5694 5692 5691 5689 5686 5683
5766 5765 5763 5760 5756 5752 5750 5747 5744 5741 5740 5739 5736 5734 5733 5732 5730 5729 5729 5728 5726 5726 5724 5722 5719 5716 5714 5711 5708 5705 5704 5701 5698 5697 5695 5693 5692 5689 5688 5686 5684 5682 5680
5763 5761 5759 5757 5755 5753 5750 5746 5744 5742 5741 5738 5735 5732 5731 5729 5728 5727 5727 5726 5724 5722 5720 5718 5715 5713 5710 5708 5705 5703 5701 5698 5696 5694 5691 5689 5687 5684 5682 5681 5679 5678 5678
5758 5756 5753 5752 5752 5750 5748 5746 5743 5742 5739 5736 5733 5730 5729 5728 5727 5725 5724 5722 5720 5717 5715 5713 5711 5709 5707 5704 5702 5699 5697 5695 5693 5691 5688 5686 5684 5681 5679 5677 5675 5674 5672
5751 5751 5749 5748 5747 5746 5745 5744 5742 5739 5736 5732 5729 5728 5727 5725 5723 5721 5719 5717 5716 5714 5711 5708 5706 5704 5701 5699 5697 5694 5692 5689 5687 5686 5684 5683 5681 5680 5677 5675 5672 5669 5666
5746 5745 5744 5743 5742 5740 5739 5739 5737 5735 5731 5726 5723 5723 5721 5719 5717 5714 5712 5711 5709 5707 5705 5702 5700 5697 5697 5695 5692 5689 5686 5684 5682 5680 5678 5677 5676 5675 5673 5672 5670 5667 5663
5740 5737 5737 5735 5735 5734 5733 5730 5730 5729 5725 5720 5716 5715 5713 5711 5711 5709 5706 5704 5701 5700 5699 5696 5693 5690 5689 5688 5686 5684 5681 5678 5676 5675 5672 5671 5671 5669 5667 5666 5665 5663 5661
5731 5729 5729 5728 5727 5726 5726 5723 5721 5718 5715 5713 5711 5709 5707 5706 5704 5702 5700 5698 5695 5693 5691 5688 5684 5681 5681 5679 5678 5676 5673 5671 5669 5668 5666 5664 5662 5661 5658 5657 5656 5655 5655
5721 5720 5720 5718 5717 5716 5714 5712 5709 5707 5704 5702 5700 5700 5700 5697 5695 5693 5692 5690 5688 5686 5684 5681 5676 5673 5671 5670 5669 5667 5663 5661 5660 5658 5657 5655 5653 5651 5648 5646 5645 5645 5646
5711 5710 5709 5708 5705 5703 5703 5700 5697 5695 5692 5691 5691 5690 5689 5686 5683 5682 5680 5680 5679 5677 5674 5670 5667 5664 5661 5660 5659 5657 5653 5650 5648 5647 5646 5644 5642 5641 5638 5635 5634 5634 5636
5699 5699 5698 5695 5692 5692 5692 5689 5685 5682 5681 5681 5680 5678 5677 5675 5673 5670 5669 5668 5667 5664 5660 5657 5654 5652 5650 5649 5647 5645 5642 5639 5637 5636 5634 5633 5631 5629 5627 5625 5624 5624 5624
5688 5688 5686 5683 5680 5680 5680 5676 5672 5671 5671 5670 5669 5666 5665 5665 5663 5659 5656 5656 5654 5649 5646 5643 5640 5638 5637 5636 5635 5634 5631 5628 5625 5623 5622 5621 5620 5618 5616 5615 5615 5613 5611
5677 5676 5674 5671 5668 5667 5667 5664 5661 5660 5659 5657 5655 5654 5652 5650 5649 5646 5643 5641 5639 5636 5632 5630 5626 5623 5622 5621 5621 5619 5618 5615 5612 5611 5610 5608 5607 5605 5604 5603 5602 5600 5597
5666 5664 5662 5659 5656 5655 5654 5652 5650 5649 5647 5644 5642 5641 5639 5637 5636 5634 5632 5629 5626 5623 5620 5617 5613 5610 5608 5606 5605 5603 5602 5600 5598 5596 5595 5594 5593 5591 5589 5587 5585 5583 5580
5656 5654 5651 5647 5644 5643 5641 5640 5638 5637 5634 5631 5629 5628 5626 5625 5623 5621 5618 5616 5614 5612 5608 5603 5600 5596 5593 5591 5589 5587 5585 5583 5581 5579 5577 5576 5574 5571 5569 5567 5565 5563 5561
5645 5641 5639 5636 5633 5631 5629 5628 5627 5625 5622 5619 5616 5615 5613 5612 5610 5607 5603 5601 5599 5597 5594 5589 5586 5582 5579 5577 5575 5573 5570 5568 5566 5562 5558 5555 5553 5551 5549 5547 5545 5543 5541